FW5404 Weather Reports


time (UTC)temp
C
wind
direction
speed
KPH
gust
KPH
rain 1hr
cm
rain 24hr
cm
rain mn
cm
humidity
%
barometer
mb
20260506011504 11 341 3.2 3.2 0.00 0.00 0.00 82 1021.3
20260506011004 11 344 1.6 3.2 0.00 0.00 0.00 82 1021.3
20260506010504 11 22 0.0 1.6 0.00 0.00 0.00 82 1021.3
20260506010006 11 320 0.0 1.6 0.00 0.00 0.00 82 1022.3
20260506005504 11 317 1.6 3.2 0.00 0.00 0.00 82 1022.3
20260506005004 11 337 1.6 3.2 0.00 0.00 0.00 81 1022.3
20260506004505 11 354 1.6 3.2 0.00 0.00 0.00 81 1022.3
20260506004004 11 19 1.6 4.8 0.00 0.00 0.00 81 1022.3
20260506003504 11 32 1.6 4.8 0.00 0.00 0.00 81 1022.3
20260506003004 11 35 1.6 4.8 0.00 0.00 0.00 81 1022.3
20260506002504 11 21 1.6 4.8 0.00 0.00 0.00 82 1022.3
20260506002004 11 337 0.0 3.2 0.00 0.00 0.00 82 1022.3
20260506001503 11 292 0.0 1.6 0.00 0.00 0.00 82 1022.3
20260506001004 11 274 0.0 3.2 0.00 0.00 0.00 82 1022.3
20260506000504 11 289 1.6 3.2 0.00 0.00 0.00 82 1022.3
20260506000006 11 340 1.6 4.8 0.00 0.00 0.00 81 1022.3
20260505235503 11 316 1.6 4.8 0.00 0.00 0.00 82 1022.3
20260505235004 11 300 0.0 3.2 0.00 0.00 0.00 82 1022.3
20260505234504 11 305 0.0 3.2 0.00 0.00 0.00 82 1022.3
20260505234004 11 314 0.0 3.2 0.00 0.00 0.00 82 1022.3
20260505233504 11 303 0.0 3.2 0.00 0.00 0.00 82 1022.3
20260505233004 11 292 1.6 3.2 0.00 0.00 0.00 82 1022.3
20260505232503 11 286 3.2 4.8 0.00 0.00 0.00 81 1022.3
20260505232004 11 285 3.2 4.8 0.00 0.00 0.00 81 1022.3
20260505231504 11 308 3.2 6.4 0.00 0.00 0.00 81 1022.3
20260505231004 11 314 3.2 6.4 0.00 0.00 0.00 80 1022.3
20260505230504 11 308 1.6 4.8 0.00 0.00 0.00 80 1022.3
20260505230009 11 309 1.6 4.8 0.00 0.00 0.00 79 1022.3
20260505225504 11 323 1.6 4.8 0.00 0.00 0.00 79 1022.3
20260505225003 12 322 3.2 6.4 0.00 0.00 0.00 79 1022.3
20260505224504 12 318 1.6 6.4 0.00 0.00 0.00 79 1022.3
20260505224004 12 328 3.2 6.4 0.00 0.00 0.00 79 1022.3
20260505223504 11 321 4.8 6.4 0.00 0.00 0.00 79 1022.3
20260505223005 11 331 3.2 4.8 0.00 0.00 0.00 79 1022.3
20260505222504 11 350 4.8 9.7 0.00 0.00 0.00 79 1022.3
20260505222004 11 333 4.8 9.7 0.00 0.00 0.00 79 1022.3
20260505221504 11 323 3.2 9.7 0.00 0.00 0.00 79 1022.3
20260505221004 11 324 3.2 6.4 0.00 0.00 0.00 78 1022.3
20260505220504 11 315 3.2 4.8 0.00 0.00 0.00 78 1022.3
20260505220005 11 310 3.2 4.8 0.00 0.00 0.00 78 1022.3
20260505215504 11 313 1.6 4.8 0.00 0.00 0.00 77 1022.3
20260505215004 11 337 1.6 4.8 0.00 0.00 0.00 77 1022.3
20260505214504 11 317 3.2 6.4 0.00 0.00 0.00 76 1022.3
20260505214004 11 307 3.2 6.4 0.00 0.00 0.00 76 1022.3
20260505213504 11 295 3.2 6.4 0.00 0.00 0.00 76 1022.3
20260505213004 12 288 3.2 4.8 0.00 0.00 0.00 75 1022.3
20260505212504 12 301 3.2 6.4 0.00 0.00 0.00 75 1022.3
20260505212004 12 309 3.2 6.4 0.00 0.00 0.00 75 1022.3
20260505211504 12 301 3.2 6.4 0.00 0.00 0.00 74 1022.3
20260505211004 12 317 3.2 6.4 0.00 0.00 0.00 74 1022.3
20260505210504 12 330 4.8 6.4 0.00 0.00 0.00 74 1022.3
20260505210006 12 337 4.8 6.4 0.00 0.00 0.00 72 1022.3
20260505205504 12 336 4.8 6.4 0.00 0.00 0.00 71 1022.3
20260505205005 12 331 4.8 6.4 0.00 0.00 0.00 71 1022.3
20260505204504 12 350 4.8 9.7 0.00 0.00 0.00 71 1022.3
20260505204003 12 354 4.8 9.7 0.00 0.00 0.00 70 1022.3
20260505203504 12 338 3.2 4.8 0.00 0.00 0.00 70 1022.3
20260505203004 12 334 4.8 9.7 0.00 0.00 0.00 70 1022.3
20260505202504 12 337 6.4 9.7 0.00 0.00 0.00 69 1022.3
20260505202005 12 330 4.8 9.7 0.00 0.00 0.00 69 1022.3
20260505201504 12 327 4.8 4.8 0.00 0.00 0.00 69 1022.3
20260505201004 13 314 11.3 11.3 0.00 0.00 0.00 66 1022.3
20260505200504 13 314 11.3 11.3 0.00 0.00 0.00 66 1022.3
20260505200006 13 314 11.3 11.3 0.00 0.00 0.00 66 1022.3
20260505195504 13 314 11.3 11.3 0.00 0.00 0.00 66 1022.3
20260505195004 13 314 11.3 11.3 0.00 0.00 0.00 66 1022.3
20260505194504 13 314 11.3 11.3 0.00 0.00 0.00 66 1022.3
20260505194004 13 314 11.3 11.3 0.00 0.00 0.00 66 1022.3
20260505193504 13 314 11.3 11.3 0.00 0.00 0.00 66 1022.3
20260505193004 13 314 11.3 11.3 0.00 0.00 0.00 66 1022.3
20260505192504 13 314 11.3 11.3 0.00 0.00 0.00 66 1022.3
20260505192004 13 314 11.3 11.3 0.00 0.00 0.00 66 1022.3
20260505191504 13 314 11.3 11.3 0.00 0.00 0.00 66 1022.3
20260505191005 13 314 11.3 11.3 0.00 0.00 0.00 66 1022.3
20260505190504 13 356 9.7 12.9 0.00 0.00 0.00 65 1022.3
20260505190006 13 359 9.7 12.9 0.00 0.00 0.00 65 1022.3
20260505185504 13 358 11.3 16.1 0.00 0.00 0.00 64 1022.3
20260505185005 13 3 11.3 16.1 0.00 0.00 0.00 63 1022.3
20260505184504 14 6 8.0 16.1 0.00 0.00 0.00 63 1022.3
20260505184006 14 358 8.0 16.1 0.00 0.00 0.00 63 1022.3
20260505183505 14 350 9.7 12.9 0.00 0.00 0.00 63 1022.3
20260505183006 14 6 11.3 14.5 0.00 0.00 0.00 62 1022.3
20260505182505 14 5 11.3 14.5 0.00 0.00 0.00 62 1022.3
20260505182006 14 343 11.3 14.5 0.00 0.00 0.00 61 1022.3
20260505181506 14 326 9.7 12.9 0.00 0.00 0.00 62 1022.3
20260505181007 15 337 9.7 16.1 0.00 0.00 0.00 62 1022.3
20260505180506 15 335 11.3 16.1 0.00 0.00 0.00 61 1022.3
20260505180008 15 345 12.9 17.7 0.00 0.00 0.00 60 1022.3
20260505175506 15 351 12.9 17.7 0.00 0.00 0.00 58 1022.3
20260505175005 15 344 11.3 20.9 0.00 0.00 0.00 58 1022.3
20260505174506 15 331 14.5 20.9 0.00 0.00 0.00 57 1022.3
20260505174006 15 326 14.5 17.7 0.00 0.00 0.00 56 1022.3
20260505173506 15 325 12.9 17.7 0.00 0.00 0.00 56 1022.3
20260505173005 15 335 12.9 17.7 0.00 0.00 0.00 55 1022.3
20260505172505 15 352 12.9 20.9 0.00 0.00 0.00 56 1022.3
20260505172006 16 1 11.3 20.9 0.00 0.00 0.00 56 1022.3
20260505171505 16 344 12.9 20.9 0.00 0.00 0.00 55 1022.3
20260505171006 16 328 11.3 14.5 0.00 0.00 0.00 55 1022.3
20260505170506 16 1 6.4 9.7 0.00 0.00 0.00 56 1022.3
20260505170008 16 1 6.4 9.7 0.00 0.00 0.00 56 1022.3
20260505165506 16 1 6.4 9.7 0.00 0.00 0.00 57 1022.3
20260505165006 16 1 6.4 9.7 0.00 0.00 0.00 57 1022.3
20260505164505 16 1 6.4 9.7 0.00 0.00 0.00 57 1022.3
20260505164005 16 1 6.4 9.7 0.00 0.00 0.00 57 1022.3
20260505163506 16 328 11.3 20.9 0.00 0.00 0.00 60 1022.3
20260505163008 16 321 11.3 20.9 0.00 0.00 0.00 60 1022.3
20260505162505 16 302 11.3 16.1 0.00 0.00 0.00 63 1022.3
20260505162005 16 306 14.5 16.1 0.00 0.00 0.00 63 1022.3
20260505161505 16 307 11.3 14.5 0.00 0.00 0.00 63 1022.3
20260505161005 16 294 12.9 14.5 0.00 0.00 0.00 67 1022.3
20260505160505 16 287 12.9 14.5 0.00 0.00 0.00 67 1022.3
20260505153006 16 290 14.5 22.5 0.00 0.00 0.00 70 1022.3
20260505152505 16 298 14.5 22.5 0.00 0.00 0.00 70 1022.3
20260505152005 16 308 14.5 17.7 0.00 0.00 0.00 70 1022.3
20260505151505 16 308 14.5 17.7 0.00 0.00 0.00 71 1022.3
20260505151006 17 297 16.1 17.7 0.00 0.00 0.00 67 1022.3
20260505150506 17 292 14.5 17.7 0.00 0.00 0.00 67 1022.3
20260505085505 12 6 4.8 8.0 0.00 0.00 0.00 93 1022.3
20260505085005 12 1 6.4 12.9 0.00 0.00 0.00 93 1022.3
20260505084505 12 15 8.0 12.9 0.00 0.00 0.00 94 1022.3
20260505084005 13 21 4.8 8.0 0.00 0.00 0.00 94 1022.3
20260505083505 12 31 3.2 4.8 0.00 0.00 0.00 94 1022.3
20260505083005 13 48 1.6 4.8 0.00 0.00 0.00 94 1022.3
20260505082505 13 71 1.6 4.8 0.00 0.00 0.00 94 1022.3
20260505082005 12 87 1.6 3.2 0.00 0.00 0.00 94 1022.3
20260505081506 13 0 0.0 0.0 0.00 0.00 0.00 94 1022.3
20260505081005 13 0 0.0 0.0 0.00 0.00 0.00 94 1022.3
20260505080505 13 0 0.0 0.0 0.00 0.00 0.00 94 1022.3
20260505080006 13 0 0.0 0.0 0.00 0.00 0.00 94 1022.3
20260505075505 13 0 0.0 0.0 0.00 0.00 0.00 94 1022.3
20260505075005 13 0 0.0 0.0 0.00 0.00 0.00 94 1022.3
20260505074505 13 326 1.6 3.2 0.00 0.00 0.00 94 1022.3
20260505074005 13 339 1.6 3.2 0.00 0.00 0.00 94 1022.3
20260505073505 13 330 1.6 3.2 0.00 0.00 0.00 95 1022.3
20260505073005 13 319 1.6 3.2 0.00 0.00 0.00 95 1022.3
20260505072504 13 292 0.0 3.2 0.00 0.00 0.00 95 1022.3
20260505072005 13 0 0.0 0.0 0.00 0.00 0.00 96 1022.3
20260505071505 13 0 0.0 0.0 0.00 0.00 0.00 96 1022.3
20260505071005 13 0 0.0 0.0 0.00 0.00 0.00 97 1022.3
20260505070505 12 0 0.0 0.0 0.00 0.00 0.00 97 1022.3
20260505070007 12 259 0.0 1.6 0.00 0.00 0.00 97 1022.3
20260505065505 12 281 1.6 4.8 0.00 0.00 0.00 97 1022.3
20260505065004 12 297 3.2 6.4 0.00 0.00 0.00 97 1022.3
20260505064504 12 318 1.6 6.4 0.00 0.00 0.00 100 1022.3
20260505064005 12 334 1.6 3.2 0.00 0.00 0.00 100 1022.3
20260505063505 12 320 1.6 3.2 0.00 0.00 0.00 100 1022.3
20260505063004 12 295 1.6 1.6 0.00 0.00 0.00 100 1022.3
20260505062504 11 295 1.6 1.6 0.00 0.00 0.00 100 1022.3
20260505062004 11 0 0.0 0.0 0.00 0.00 0.00 100 1022.3
20260505061504 11 0 0.0 0.0 0.00 0.00 0.00 100 1022.3
20260505061005 11 0 0.0 0.0 0.00 0.00 0.00 100 1022.3
20260505060505 11 0 0.0 0.0 0.00 0.00 0.00 100 1022.3
20260505060006 11 0 0.0 0.0 0.00 0.00 0.00 100 1022.3
20260505055505 11 0 0.0 0.0 0.00 0.00 0.00 100 1022.3
20260505055004 11 0 0.0 0.0 0.00 0.00 0.00 100 1022.3
20260505054505 11 0 0.0 0.0 0.00 0.00 0.00 100 1022.3
20260505054008 11 0 0.0 0.0 0.00 0.00 0.00 100 1022.3
20260505053504 11 0 0.0 0.0 0.00 0.00 0.00 100 1022.3
20260505053004 11 0 0.0 0.0 0.00 0.00 0.00 100 1022.3
20260505052505 11 0 0.0 0.0 0.00 0.00 0.00 100 1022.3
20260505052005 11 0 0.0 0.0 0.00 0.00 0.00 100 1022.3
20260505051504 11 0 0.0 0.0 0.00 0.00 0.00 100 1022.3
20260505051004 11 203 0.0 1.6 0.00 0.00 0.00 100 1022.3
20260505050504 11 96 0.0 1.6 0.00 0.00 0.00 100 1022.3
20260505041505 10 68 1.6 3.2 0.00 0.00 0.00 100 1022.3
20260505041004 10 68 0.0 3.2 0.00 0.00 0.00 100 1022.3
20260505040505 10 314 0.0 1.6 0.00 0.00 0.00 100 1022.3
20260505040006 10 300 1.6 3.2 0.00 0.00 0.00 100 1022.3
20260505035504 10 292 0.0 3.2 0.00 0.00 0.00 100 1022.3
20260505035005 10 0 0.0 0.0 0.00 0.00 0.00 100 1022.3
20260505034504 10 0 0.0 0.0 0.00 0.00 0.00 100 1022.3
20260505034004 10 0 0.0 0.0 0.00 0.00 0.00 100 1022.3
20260505033504 10 0 0.0 0.0 0.00 0.00 0.00 100 1022.3
20260505033005 10 0 0.0 0.0 0.00 0.00 0.00 100 1022.3
20260505032504 10 0 0.0 0.0 0.00 0.00 0.00 100 1022.3
20260505032005 10 0 0.0 0.0 0.00 0.00 0.00 100 1022.3
20260505031504 10 0 0.0 0.0 0.00 0.00 0.00 100 1022.3
20260505031004 10 0 0.0 0.0 0.00 0.00 0.00 100 1022.3
20260505030504 10 0 0.0 0.0 0.00 0.00 0.00 100 1022.3
20260505030007 10 0 0.0 0.0 0.00 0.00 0.00 97 1022.3
20260505025505 10 0 0.0 0.0 0.00 0.00 0.00 97 1022.3
20260505025005 9 300 1.6 3.2 0.00 0.00 0.00 97 1022.3
20260505024504 9 297 1.6 3.2 0.00 0.00 0.00 97 1022.3
20260505024004 9 297 1.6 3.2 0.00 0.00 0.00 97 1022.3
20260505023505 9 0 0.0 0.0 0.00 0.00 0.00 97 1022.3
20260505023004 9 0 0.0 0.0 0.00 0.00 0.00 97 1022.3
20260505022505 10 0 0.0 0.0 0.00 0.00 0.00 97 1022.3
20260505022004 9 0 0.0 0.0 0.00 0.00 0.00 97 1022.3
20260505021504 9 0 0.0 0.0 0.00 0.00 0.00 97 1022.3
20260505021005 10 0 0.0 0.0 0.00 0.00 0.00 97 1022.3
20260505020504 10 0 0.0 0.0 0.00 0.00 0.00 97 1022.3
20260505020006 10 0 0.0 0.0 0.00 0.00 0.00 97 1022.3
20260505015505 10 0 0.0 0.0 0.00 0.00 0.00 97 1022.3
20260505015004 10 158 0.0 1.6 0.00 0.00 0.00 97 1022.3
20260505014504 10 158 1.6 3.2 0.00 0.00 0.00 97 1022.3
20260505014005 10 158 1.6 3.2 0.00 0.00 0.00 97 1022.3
20260505013504 10 158 0.0 3.2 0.00 0.00 0.00 97 1022.3
20260505013004 10 0 0.0 0.0 0.00 0.00 0.00 97 1022.3
20260505012505 10 0 0.0 0.0 0.00 0.00 0.00 97 1022.3
20260505012004 10 158 0.0 1.6 0.00 0.00 0.00 97 1022.3